ATS 1 1 02608U 66110A 08202.86186658 -.00000002 00000-0 10000-3 0 8693 2 02608 8.5051 312.3595 0005263 187.3672 172.7695 1.00398966 69188 ATS 3 1 03029U 67111A 08203.35009842 -.00000089 00000-0 10000-3 0 3709 2 03029 9.9426 319.9708 0014241 36.2777 323.9311 1.00272519149066 ORIZURU (DEBUT) 1 20479U 90013B 08205.86364139 -.00000025 00000-0 16401-4 0 41 2 20479 99.0249 183.5623 0539346 189.1580 169.9361 12.83675209864902 SURFSAT 1 23711U 95059B 08205.06185964 .00000015 00000-0 11141-3 0 118 2 23711 100.2964 211.5546 0368440 149.5457 212.7653 13.12560859609250 MAQSAT H 1 25023U 97066A 08204.72971999 .00000152 00000-0 12760-2 0 5214 2 25023 7.8571 35.6667 6499720 154.2061 262.5625 3.09464294121149 MAQSAT B 1 25024U 97066B 08204.58787027 .00000028 00000-0 33289-3 0 5566 2 25024 7.8763 31.8888 6507535 161.0552 243.7145 3.08763449121063 TEAMSAT 1 25025U 97066C 08204.79962875 .00000021 00000-0 37423-3 0 5710 2 25025 7.8062 45.1124 6511501 135.0522 301.0347 3.07910021120726 OPAL (OO-38) 1 26063U 00004C 08205.17865534 -.00000031 00000-0 93928-5 0 2663 2 26063 100.1915 286.2777 0037257 108.0008 252.5254 14.35840235444738 FALCONSAT 1 26064U 00004D 08205.74474440 .00000044 00000-0 35491-4 0 2639 2 26064 100.1929 285.2232 0038503 112.4713 248.0560 14.35397016444695 PICOSAT 1 & 2 [TETHERED] 1 26080U 00004H 08205.24491286 .00000086 00000-0 45571-4 0 8642 2 26080 100.1922 306.6076 0033077 64.3119 296.1495 14.40243121444139 PICOSAT 3 1 26091U 00004J 08204.84458330 .00000114 00000-0 51455-4 0 3726 2 26091 100.1882 315.4432 0031808 33.3494 326.9691 14.43254399443919 PICOSAT 4 1 26092U 00004K 08205.81310048 .00000008 00000-0 21154-4 0 2227 2 26092 100.1798 302.0204 0035766 59.9924 300.4814 14.40196303443432 PICOSAT 5 1 26093U 00004L 08204.77297647 .00000208 00000-0 76859-4 0 1077 2 26093 100.1898 321.2603 0032300 19.0781 341.1603 14.44743228444481 PICOSAT 6 1 26094U 00004M 08204.76995184 .00000014 00000-0 23183-4 0 6104 2 26094 100.1873 299.3642 0035787 71.6990 288.8063 14.39513196442816 SNAP 1 1 26386U 00033C 08204.80204613 .00000073 00000-0 23015-4 0 4876 2 26386 98.4125 223.8287 0012465 138.9452 221.2674 14.65070447430939 CHAMP 1 26405U 00039B 08204.90196413 .00004939 00000-0 24679-4 0 6002 2 26405 87.2240 87.0420 0003335 86.6369 273.5290 15.81428598457549 PICOSAT 9 1 26930U 01043B 08205.35240992 -.00000085 00000-0 -51717-6 0 9214 2 26930 67.0010 172.1481 0007782 303.3678 56.6670 14.30026239355726 PROBA 1 1 26958U 01049B 08205.77372942 .00000261 00000-0 31521-4 0 7094 2 26958 97.6684 273.3271 0082357 18.0317 342.3770 14.89591079366938 CUTE-1 (CO-55) 1 27844U 03031E 08204.58289869 .00000011 00000-0 25663-4 0 3566 2 27844 98.7151 212.3569 0010590 19.7852 340.3726 14.20588590262460 CANX-1 1 27847U 03031H 08204.57146965 -.00000007 00000-0 16832-4 0 2919 2 27847 98.7099 213.3295 0009625 0.1224 359.9963 14.20926122262483 CUBESAT XI-IV (CO-57) 1 27848U 03031J 08205.50150538 .00000003 00000-0 21974-4 0 3071 2 27848 98.7153 212.3512 0010531 19.5291 340.6284 14.20397260262569 NAXING 1 1 28221U 04012B 08205.19241970 .00000179 00000-0 25171-4 0 9098 2 28221 97.5356 251.7278 0010853 205.8313 154.2352 14.87824023231392 ST5-A 1 28980U 06008A 08204.83834405 .00000556 00000-0 39351-4 0 7337 2 28980 105.6513 199.3526 2365096 240.7076 93.7360 10.59509648 90073 ST5-B 1 28981U 06008B 08205.53313357 .00001773 17203-5 79023-4 0 7716 2 28981 105.6721 212.3138 2355649 229.5527 107.5232 10.69310732 90605 ST5-C 1 28982U 06008C 08205.08057519 .00001031 17079-5 63080-4 0 7750 2 28982 105.6840 208.9174 2361771 234.0120 101.8479 10.66114899 90403 GENESIS 1 1 29252U 06029A 08205.83393425 .00000021 00000-0 15032-4 0 5555 2 29252 64.5150 325.1604 0057535 259.3334 100.1300 15.03231244111551 FALCONSAT-3 1 30776U 07006E 08204.64783533 .00000151 00000-0 14056-4 0 3642 2 30776 35.4350 298.4280 0002112 314.9931 45.0614 15.03022102 75484 GENESIS 2 1 31789U 07028A 08205.18130851 -.00000093 00000-0 67626-5 0 2984 2 31789 64.5126 357.8375 0044972 310.7937 48.9283 15.02886533 58680